DLH55X EDDF-LEBB

Flight info

Callsign DLH55X
Flight time N/A
Altitude 33000
Route ANEKI2L/18 ANEKI Y163 HERBI Y164 MOPAN DCT LUTIX DCT BENOT DCT NEMOS DCT NINTU DCT MEBAK DCT REPSI DCT LERGA DCT MINSO DCT NARAK/N0459F350 DCT AGN/N0424F270 DCT LATEK DCT PPN M601 CEGAM
Aircraft A321/M-SDE3FGHIRWY/LB1

Departure

Time N/A
Airport Frankfurt Main Airport (EDDF)

Arrival

Time 2026-05-05 16:58
Airport Bilbao Airport (LEBB)
Time Latitude Longitude Altitude Speed Heading
2026-05-05 15:58 45.37240 3.97686 32901 ft 412 kts 233°
2026-05-05 15:59 45.35567 3.94385 32905 ft 412 kts 233°
2026-05-05 15:59 45.32214 3.87781 32904 ft 412 kts 233°
2026-05-05 16:00 45.28860 3.81180 32900 ft 412 kts 233°
2026-05-05 16:00 45.25522 3.74625 32900 ft 413 kts 233°
2026-05-05 16:01 45.22209 3.67965 32900 ft 413 kts 234°
2026-05-05 16:01 45.18940 3.61255 32899 ft 414 kts 234°
2026-05-05 16:02 45.15652 3.54561 32896 ft 414 kts 234°
2026-05-05 16:02 45.12372 3.47932 32912 ft 413 kts 234°
2026-05-05 16:03 45.09076 3.41303 32921 ft 411 kts 234°
2026-05-05 16:03 45.05789 3.34708 32925 ft 410 kts 234°
2026-05-05 16:04 45.02511 3.28133 32925 ft 409 kts 234°
2026-05-05 16:04 44.99238 3.21568 32927 ft 408 kts 234°
2026-05-05 16:05 44.95986 3.15061 32927 ft 408 kts 234°
2026-05-05 16:05 44.92710 3.08535 32937 ft 407 kts 233°
2026-05-05 16:06 44.89438 3.02046 32921 ft 406 kts 233°
2026-05-05 16:06 44.86162 2.95563 32913 ft 406 kts 233°
2026-05-05 16:07 44.82950 2.89062 32927 ft 407 kts 235°
2026-05-05 16:07 44.79885 2.82347 32930 ft 408 kts 236°
2026-05-05 16:08 44.76845 2.75597 32941 ft 408 kts 236°
2026-05-05 16:08 44.73771 2.68885 32951 ft 408 kts 236°
2026-05-05 16:09 44.70681 2.62240 32960 ft 410 kts 235°
2026-05-05 16:09 44.67554 2.55528 32945 ft 411 kts 236°
2026-05-05 16:10 44.64420 2.48804 32944 ft 412 kts 235°
2026-05-05 16:10 44.61279 2.42071 32945 ft 412 kts 235°
2026-05-05 16:11 44.58133 2.35339 32943 ft 412 kts 235°
2026-05-05 16:12 44.51862 2.21985 32960 ft 412 kts 235°
2026-05-05 16:13 44.43961 2.05233 32944 ft 414 kts 235°
2026-05-05 16:13 44.40775 1.98510 32943 ft 415 kts 235°
2026-05-05 16:14 44.34400 1.85098 32953 ft 415 kts 235°
2026-05-05 16:15 44.28016 1.71700 32941 ft 416 kts 236°
2026-05-05 16:16 44.21784 1.58050 32943 ft 417 kts 236°
2026-05-05 16:17 44.17109 1.47883 32958 ft 418 kts 236°
2026-05-05 16:18 44.12379 1.37673 32946 ft 419 kts 236°
2026-05-05 16:19 44.07631 1.27454 32952 ft 419 kts 236°
2026-05-05 16:19 44.02887 1.17296 32958 ft 420 kts 236°
2026-05-05 16:20 43.96528 1.03719 32977 ft 419 kts 236°
2026-05-05 16:22 43.88518 0.86897 32979 ft 418 kts 230°
2026-05-05 16:23 43.80774 0.74875 32990 ft 418 kts 228°
2026-05-05 16:23 43.74971 0.65907 32991 ft 419 kts 228°
2026-05-05 16:24 43.71071 0.59910 32974 ft 419 kts 228°
2026-05-05 16:25 43.65209 0.50922 32989 ft 420 kts 228°
2026-05-05 16:25 43.59370 0.41993 32991 ft 419 kts 228°
2026-05-05 16:26 43.51548 0.30060 32997 ft 420 kts 228°
2026-05-05 16:27 43.47617 0.24096 32999 ft 420 kts 229°
2026-05-05 16:27 43.45937 0.20820 33004 ft 420 kts 242°
2026-05-05 16:27 43.44600 0.17245 33001 ft 421 kts 242°
2026-05-05 16:28 43.41972 0.10111 33002 ft 421 kts 242°
2026-05-05 16:28 43.39334 0.02932 32996 ft 420 kts 242°
2026-05-05 16:29 43.36692 -0.04238 33040 ft 420 kts 243°
2026-05-05 16:29 43.34035 -0.11400 33017 ft 421 kts 242°
2026-05-05 16:30 43.31389 -0.18511 32992 ft 421 kts 242°
2026-05-05 16:30 43.28720 -0.25667 32992 ft 421 kts 242°
2026-05-05 16:31 43.26041 -0.32818 32992 ft 421 kts 242°
2026-05-05 16:31 43.23366 -0.39974 32991 ft 421 kts 242°
2026-05-05 16:32 43.20689 -0.47112 32983 ft 421 kts 242°
2026-05-05 16:32 43.18021 -0.54187 32994 ft 420 kts 242°
2026-05-05 16:33 43.15336 -0.61298 33002 ft 420 kts 242°
2026-05-05 16:33 43.12653 -0.68400 33004 ft 420 kts 242°
2026-05-05 16:34 43.11309 -0.71947 32740 ft 421 kts 242°
2026-05-05 16:34 43.09963 -0.75490 32181 ft 419 kts 242°
2026-05-05 16:34 43.08617 -0.79027 31668 ft 419 kts 242°
2026-05-05 16:34 43.07283 -0.82520 31153 ft 420 kts 242°
2026-05-05 16:35 43.05930 -0.86065 30643 ft 421 kts 242°
2026-05-05 16:35 43.04578 -0.89611 30161 ft 421 kts 242°
2026-05-05 16:35 43.03223 -0.93165 29602 ft 421 kts 242°
2026-05-05 16:35 43.01871 -0.96707 29023 ft 419 kts 242°
2026-05-05 16:36 43.00528 -1.00217 28448 ft 415 kts 242°
2026-05-05 16:36 42.99194 -1.03694 27901 ft 412 kts 242°
2026-05-05 16:36 42.97869 -1.07141 27366 ft 409 kts 242°
2026-05-05 16:36 42.96550 -1.10565 26834 ft 406 kts 242°
2026-05-05 16:37 42.95255 -1.13926 26330 ft 404 kts 242°
2026-05-05 16:37 42.93952 -1.17308 25829 ft 401 kts 242°
2026-05-05 16:37 42.92657 -1.20668 25335 ft 399 kts 242°
2026-05-05 16:37 42.91370 -1.24001 24837 ft 394 kts 242°
2026-05-05 16:38 42.90101 -1.27283 24366 ft 388 kts 242°
2026-05-05 16:38 42.88854 -1.30514 23943 ft 382 kts 242°
2026-05-05 16:38 42.87634 -1.33673 23516 ft 377 kts 242°
2026-05-05 16:38 42.86419 -1.36807 23011 ft 371 kts 242°
2026-05-05 16:39 42.85217 -1.39894 22534 ft 366 kts 242°
2026-05-05 16:39 42.84049 -1.42894 22102 ft 360 kts 242°
2026-05-05 16:39 42.82885 -1.45886 21671 ft 355 kts 243°
2026-05-05 16:39 42.81739 -1.48832 21239 ft 349 kts 242°
2026-05-05 16:40 42.80610 -1.51729 20822 ft 344 kts 242°
2026-05-05 16:40 42.79494 -1.54579 20420 ft 338 kts 243°
2026-05-05 16:40 42.78395 -1.57385 19986 ft 334 kts 243°
2026-05-05 16:40 42.77306 -1.60164 19560 ft 331 kts 243°
2026-05-05 16:41 42.76232 -1.62907 19126 ft 327 kts 244°
2026-05-05 16:41 42.75416 -1.65720 18722 ft 322 kts 256°
2026-05-05 16:41 42.75057 -1.68701 18318 ft 318 kts 267°
2026-05-05 16:41 42.75159 -1.71695 17856 ft 316 kts 278°
2026-05-05 16:42 42.75713 -1.74580 17393 ft 315 kts 290°
2026-05-05 16:42 42.76690 -1.77234 16934 ft 314 kts 301°
2026-05-05 16:42 42.77872 -1.79715 16485 ft 311 kts 301°
2026-05-05 16:42 42.79035 -1.82179 16044 ft 308 kts 301°
2026-05-05 16:43 42.80183 -1.84627 15618 ft 305 kts 301°
2026-05-05 16:43 42.81319 -1.87058 15178 ft 303 kts 301°
2026-05-05 16:43 42.82446 -1.89474 14749 ft 301 kts 301°
2026-05-05 16:43 42.83549 -1.91833 14338 ft 298 kts 301°
2026-05-05 16:44 42.84662 -1.94211 13932 ft 297 kts 301°
2026-05-05 16:44 42.85769 -1.96574 13487 ft 295 kts 301°
2026-05-05 16:44 42.86874 -1.98928 13029 ft 294 kts 301°
2026-05-05 16:44 42.87971 -2.01269 12583 ft 293 kts 301°
2026-05-05 16:45 42.89059 -2.03605 12146 ft 291 kts 302°
2026-05-05 16:45 42.90143 -2.05930 11707 ft 290 kts 302°
2026-05-05 16:45 42.91220 -2.08245 11274 ft 288 kts 301°
2026-05-05 16:45 42.92274 -2.10514 10848 ft 286 kts 301°
2026-05-05 16:46 42.93339 -2.12801 10422 ft 285 kts 302°
2026-05-05 16:46 42.94400 -2.15076 10066 ft 282 kts 302°
2026-05-05 16:46 42.95428 -2.17281 9996 ft 268 kts 302°
2026-05-05 16:46 42.96416 -2.19402 10004 ft 264 kts 302°
2026-05-05 16:47 42.97396 -2.21517 10004 ft 263 kts 302°
2026-05-05 16:47 42.98419 -2.23599 10006 ft 265 kts 307°
2026-05-05 16:47 42.99649 -2.25460 10012 ft 264 kts 313°
2026-05-05 16:47 43.00916 -2.27261 9699 ft 268 kts 312°
2026-05-05 16:48 43.02213 -2.29111 9159 ft 271 kts 312°
2026-05-05 16:48 43.03513 -2.30972 8733 ft 269 kts 313°
2026-05-05 16:48 43.04801 -2.32815 8343 ft 267 kts 312°
2026-05-05 16:48 43.06069 -2.34633 7955 ft 259 kts 312°
2026-05-05 16:49 43.07277 -2.36368 7569 ft 245 kts 312°
2026-05-05 16:49 43.08432 -2.38025 7204 ft 238 kts 313°
2026-05-05 16:49 43.09569 -2.39657 6829 ft 237 kts 313°
2026-05-05 16:49 43.10705 -2.41287 6463 ft 237 kts 313°
2026-05-05 16:50 43.11848 -2.42927 5970 ft 242 kts 313°
2026-05-05 16:50 43.12894 -2.44619 5976 ft 227 kts 303°
2026-05-05 16:50 43.13638 -2.46475 5991 ft 225 kts 297°
2026-05-05 16:50 43.14345 -2.48388 5997 ft 226 kts 296°
2026-05-05 16:51 43.15052 -2.50291 5994 ft 219 kts 296°
2026-05-05 16:51 43.15734 -2.52123 5992 ft 215 kts 297°
2026-05-05 16:51 43.16411 -2.53942 5996 ft 211 kts 297°
2026-05-05 16:51 43.17058 -2.55681 5941 ft 204 kts 297°
2026-05-05 16:52 43.17698 -2.57402 5639 ft 201 kts 297°
2026-05-05 16:52 43.18326 -2.59097 5331 ft 198 kts 297°
2026-05-05 16:52 43.18942 -2.60768 5018 ft 195 kts 297°
2026-05-05 16:52 43.19542 -2.62400 4730 ft 194 kts 297°
2026-05-05 16:53 43.20150 -2.64042 4458 ft 190 kts 296°
2026-05-05 16:53 43.20744 -2.65644 4402 ft 186 kts 296°
2026-05-05 16:53 43.21316 -2.67190 4289 ft 178 kts 296°
2026-05-05 16:53 43.21872 -2.68697 4071 ft 178 kts 297°
2026-05-05 16:54 43.22438 -2.70226 3816 ft 180 kts 297°
2026-05-05 16:54 43.22996 -2.71738 3547 ft 175 kts 297°
2026-05-05 16:54 43.23542 -2.73214 3281 ft 172 kts 297°
2026-05-05 16:54 43.24074 -2.74656 3007 ft 169 kts 297°
2026-05-05 16:55 43.24594 -2.76066 2759 ft 162 kts 296°
2026-05-05 16:55 43.25089 -2.77408 2546 ft 152 kts 296°
2026-05-05 16:55 43.25555 -2.78670 2288 ft 144 kts 296°
2026-05-05 16:55 43.26008 -2.79901 2065 ft 145 kts 296°
2026-05-05 16:56 43.26461 -2.81131 1829 ft 145 kts 297°
2026-05-05 16:56 43.26912 -2.82357 1608 ft 142 kts 297°
2026-05-05 16:56 43.27353 -2.83557 1378 ft 141 kts 296°
2026-05-05 16:56 43.27796 -2.84759 1155 ft 142 kts 296°
2026-05-05 16:57 43.28236 -2.85956 944 ft 143 kts 296°
2026-05-05 16:57 43.28680 -2.87165 730 ft 139 kts 295°
2026-05-05 16:57 43.29110 -2.88335 522 ft 138 kts 295°
2026-05-05 16:57 43.29544 -2.89516 311 ft 138 kts 295°
2026-05-05 16:58 43.29971 -2.90683 126 ft 132 kts 296°
2026-05-05 16:58 43.30315 -2.91618 125 ft 85 kts 297°
2026-05-05 16:58 43.30502 -2.92130 124 ft 34 kts 296°
2026-05-05 16:58 43.30595 -2.92379 122 ft 18 kts 297°
2026-05-05 16:59 43.30690 -2.92476 125 ft 14 kts 341°
2026-05-05 16:59 43.30783 -2.92496 123 ft 14 kts 28°
2026-05-05 16:59 43.30780 -2.92377 124 ft 14 kts 117°
2026-05-05 16:59 43.30733 -2.92252 125 ft 15 kts 117°
2026-05-05 17:00 43.30684 -2.92118 127 ft 16 kts 116°
2026-05-05 17:00 43.30633 -2.91978 127 ft 17 kts 117°
2026-05-05 17:00 43.30579 -2.91830 125 ft 18 kts 117°
2026-05-05 17:00 43.30521 -2.91674 125 ft 19 kts 115°
2026-05-05 17:01 43.30462 -2.91511 124 ft 19 kts 116°
2026-05-05 17:01 43.30401 -2.91344 125 ft 20 kts 115°
2026-05-05 17:01 43.30337 -2.91167 123 ft 21 kts 116°
2026-05-05 17:01 43.30268 -2.90984 126 ft 22 kts 117°
2026-05-05 17:02 43.30199 -2.90796 126 ft 22 kts 117°
2026-05-05 17:02 43.30144 -2.90646 124 ft 14 kts 113°
2026-05-05 17:02 43.30196 -2.90547 125 ft 15 kts 28°
2026-05-05 17:02 43.30265 -2.90545 126 ft 10 kts 328°
2026-05-05 17:03 43.30328 -2.90603 124 ft 10 kts 321°
2026-05-05 17:03 43.30362 -2.90607 127 ft 6 kts 18°
2026-05-05 17:03 43.30396 -2.90584 126 ft 3 kts 27°
2026-05-05 17:03 43.30405 -2.90578 125 ft 0 kts 27°